User: anonymous   Login
Location: Coleman
(45.0650°N, 88.0340°W)
Time: 02:08:16
(UTC-05:00)
Language:

Iridium 97 - Orbit

View from above orbital plane
View from above orbital plane
View from above satellite
View from above satellite

Ground track
Ground track

The orbit data is extracted from the following two-line orbital elements,

1 27450U 02031A   15186.24679107  .00000373  00000-0  12623-3 0  9991
2 27450 086.3963 256.8849 0002530 087.8641 272.2845 14.34222171688044
Epoch (UTC): 05 July 2015 05:55:22
Eccentricity: 0.0002530
inclination: 86.3963°
perigee height: 776 km
apogee height: 779 km
right ascension of ascending node: 256.8849°
argument of perigee: 87.8641°
revolutions per day: 14.34222171
mean anomaly at epoch: 272.2845°
orbit number at epoch: 68804

The dashed part of the orbit path shows where the satellite is in the earth's shadow,  

DLR